Weather History for Klamath Falls, OR

Change the Weather History Date:

Sunday, March 31, 2013

  Actual Average Record
Temperature  
Mean Temperature 46 °F 40 °F  
Max Temperature 53 °F 53 °F 73 °F (1992)
Min Temperature 38 °F 27 °F 12 °F (1982)
Degree Days  
Heating Degree Days 19 25  
Month to date heating degree days 751 822  
Since 1 July heating degree days 5442 5662  
Cooling Degree Days 0 0  
Month to date cooling degree days 0 0  
Year to date cooling degree days 0 0  
Moisture  
Dew Point 40 °F    
Average Humidity 78    
Maximum Humidity 100    
Minimum Humidity 59    
Precipitation  
Precipitation 0.43 in 0.05 in 0.51 in (2003)
Month to date precipitation 0.70 1.27  
Year to date precipitation 1.48 5.04  
Sea Level Pressure  
Sea Level Pressure 29.98 in    
Wind  
Wind Speed 8 mph (West)    
Max Wind Speed 22 mph    
Max Gust Speed 28 mph    
Visibility 9 miles    
Events Rain    
T = Trace of Precipitation, MM = Missing Value Source: NWS Daily Summary

Daily Weather History Graph

Daily Weather History Graph

Search for Another Location

Airport:

Trip Planner

Search our weather history database for the weather conditions in past years. The results will help you decide how hot, cold, wet, or windy it might be!

Date:

Astronomy

Mar. 31, 2013 Rise Set
Actual Time 6:50 AM PDT 7:31 PM PDT
Civil Twilight 6:22 AM PDT 8:00 PM PDT
Nautical Twilight 5:49 AM PDT 8:33 PM PDT
Astronomical Twilight 5:14 AM PDT 9:08 PM PDT
Moon No Moon Rise 9:38 AM PDT (3/31)
Length of Visible Light 13h 37m
Length of Day
12h 41m
Waning Gibbous, 76% of the Moon is Illuminated
Mar 31
Waning Gibbous
Apr 2
Last Quarter
Apr 10
New
Apr 18
First Quarter
Apr 25
Full

Hourly Weather History & Observations

Time (PDT) Temp. Windchill Dew Point Humidity Pressure Visibility Wind Dir Wind Speed Gust Speed Precip Events Conditions
12:53 AM 44.1 °F 41.5 °F 37.0 °F 76% 29.95 in 10.0 mi SSE 4.6 mph - N/A   Clear
1:53 AM 43.0 °F 41.3 °F 36.0 °F 76% 29.94 in 10.0 mi West 3.5 mph - N/A   Scattered Clouds
2:53 AM 44.1 °F 40.1 °F 37.0 °F 76% 29.93 in 10.0 mi NE 6.9 mph - N/A   Overcast
3:53 AM 41.0 °F 39.0 °F 36.0 °F 82% 29.93 in 10.0 mi South 3.5 mph - N/A   Mostly Cloudy
4:53 AM 39.0 °F 35.7 °F 35.1 °F 86% 29.91 in 10.0 mi ENE 4.6 mph - N/A   Partly Cloudy
5:53 AM 42.1 °F 38.4 °F 37.0 °F 82% 29.91 in 10.0 mi SSW 5.8 mph - N/A   Overcast
6:04 AM 42.8 °F - 37.4 °F 81% 29.98 in 7.0 mi Calm Calm - N/A   Mostly Cloudy
6:53 AM 46.0 °F 41.4 °F 41.0 °F 83% 29.92 in 10.0 mi NW 9.2 mph - N/A   Mostly Cloudy
7:53 AM 48.0 °F - 41.0 °F 77% 29.94 in 10.0 mi WSW 4.6 mph - N/A   Mostly Cloudy
8:46 AM 48.2 °F - 42.8 °F 82% 30.01 in 10.0 mi NW 5.8 mph - 0.00 in Rain Light Rain
8:53 AM 48.9 °F - 44.1 °F 83% 29.95 in 10.0 mi West 10.4 mph - 0.00 in Rain Light Rain
9:28 AM 48.2 °F - 42.8 °F 82% 30.01 in 10.0 mi West 20.7 mph 26.5 mph 0.00 in   Mostly Cloudy
9:53 AM 50.0 °F - 39.9 °F 68% 29.97 in 10.0 mi West 19.6 mph 23.0 mph 0.00 in   Mostly Cloudy
10:53 AM 50.0 °F - 39.2 °F 66% 29.99 in 10.0 mi West 12.7 mph - N/A   Mostly Cloudy
11:45 AM 48.2 °F - 39.2 °F 71% 30.06 in 9.0 mi WSW 11.5 mph - 0.00 in Rain Light Rain
11:53 AM 48.0 °F - 39.9 °F 74% 30.03 in 8.0 mi WSW 10.4 mph - 0.00 in Rain Light Rain
12:53 PM 48.0 °F - 42.1 °F 80% 30.04 in 10.0 mi South 11.5 mph - 0.01 in Rain Light Rain
1:05 PM 48.2 °F - 42.8 °F 82% 30.06 in 10.0 mi South 10.4 mph - 0.00 in   Overcast
1:42 PM 48.2 °F - 41.0 °F 76% 30.05 in 10.0 mi SSW 6.9 mph - 0.00 in Rain Light Rain
1:53 PM 48.9 °F - 41.0 °F 74% 30.03 in 10.0 mi SSW 8.1 mph - 0.00 in Rain Light Rain
2:53 PM 51.1 °F - 41.0 °F 68% 29.99 in 10.0 mi Variable 4.6 mph - 0.00 in   Overcast
6:53 PM 52.0 °F - 37.0 °F 57% 29.95 in 10.0 mi West 6.9 mph - N/A   Overcast
7:53 PM 48.9 °F - 37.9 °F 66% 29.94 in 10.0 mi West 9.2 mph - N/A   Overcast
8:53 PM 46.9 °F - 39.0 °F 74% 29.95 in 10.0 mi West 9.2 mph - N/A   Mostly Cloudy
9:53 PM 46.9 °F - 39.0 °F 74% 29.96 in 10.0 mi West 3.5 mph - N/A   Overcast
10:53 PM 45.0 °F 37.9 °F 42.1 °F 90% 29.97 in 4.0 mi NW 16.1 mph - 0.07 in Rain Heavy Rain
11:05 PM 44.6 °F 38.8 °F 42.8 °F 93% 30.00 in 4.0 mi NW 11.5 mph - 0.06 in Rain Heavy Rain
11:53 PM 43.0 °F 40.3 °F 42.1 °F 97% 29.98 in 5.0 mi NW 4.6 mph - 0.18 in Rain Rain